Weather History for KAFK - September, 2013

Change the Weather History Date:

Friday, September 20, 2013

  Actual Average (KSDA) Record (KSDA)
Temperature  
Mean Temperature 61 °F -  
Max Temperature 70 °F 78 °F 95 °F (1980)
Min Temperature 52 °F 52 °F 30 °F (1991)
Degree Days  
Heating Degree Days 4    
Growing Degree Days 11 (Base 50)    
Moisture  
Dew Point 47 °F    
Average Humidity 64    
Maximum Humidity 88    
Minimum Humidity 36    
Precipitation  
Precipitation 0.00 in - - ()
Sea Level Pressure  
Sea Level Pressure 30.03 in    
Wind  
Wind Speed 9 mph (NNW)    
Max Wind Speed 18 mph    
Max Gust Speed 25 mph    
Visibility 10 miles    
Events      
Averages and records for this station are not official NWS values.
T = Trace of Precipitation, MM = Missing Value Source: NWS Daily Summary

Daily Weather History Graph

Daily Weather History Graph

Search for Another Location

Airport or City:

Trip Planner

Search our weather history database for the weather conditions in past years. The results will help you decide how hot, cold, wet, or windy it might be!

Date:

Astronomy

Sep. 20, 2013 Rise Set
Actual Time 7:09 AM CDT 7:23 PM CDT
Civil Twilight 6:41 AM CDT 7:50 PM CDT
Nautical Twilight 6:09 AM CDT 8:22 PM CDT
Astronomical Twilight 5:37 AM CDT 8:55 PM CDT
Moon 7:57 PM CDT (9/20) 8:25 AM CDT (9/20)
Length of Visible Light 13h 08m
Length of Day
12h 14m
Full, 98% of the Moon is Illuminated
Sep 20
Full
Sep 26
Last Quarter
Oct 4
New
Oct 11
First Quarter
Oct 18
Full

Hourly Weather History & Observations

Time (CDT) Temp. Dew Point Humidity Pressure Visibility Wind Dir Wind Speed Gust Speed Precip Events Conditions
12:15 AM 60.8 °F 52.7 °F 75% 30.00 in 10.0 mi NNW 11.5 mph - N/A   Overcast
12:35 AM 60.4 °F 52.5 °F 75% 29.99 in 10.0 mi NNW 10.4 mph - N/A   Overcast
12:55 AM 60.3 °F 52.2 °F 75% 30.00 in 10.0 mi NNW 11.5 mph - N/A   Overcast
1:15 AM 59.9 °F 52.2 °F 76% 30.00 in 10.0 mi NNW 12.7 mph 17.3 mph N/A   Scattered Clouds
1:35 AM 59.4 °F 52.3 °F 78% 30.01 in 10.0 mi NNW 8.1 mph - N/A   Scattered Clouds
1:55 AM 59.0 °F 52.3 °F 79% 30.01 in 10.0 mi NNW 5.8 mph - N/A   Clear
2:15 AM 58.6 °F 52.5 °F 80% 30.01 in 10.0 mi NNW 8.1 mph - N/A   Clear
2:35 AM 58.3 °F 52.7 °F 82% 30.02 in 10.0 mi NNW 6.9 mph - N/A   Clear
2:55 AM 58.1 °F 52.7 °F 82% 30.02 in 10.0 mi NNW 6.9 mph - N/A   Clear
3:15 AM 57.7 °F 52.7 °F 83% 30.02 in 10.0 mi NNW 9.2 mph - N/A   Clear
3:35 AM 57.7 °F 51.8 °F 81% 30.01 in 10.0 mi NNW 10.4 mph - N/A   Clear
3:55 AM 57.2 °F 51.8 °F 82% 30.02 in 10.0 mi NNW 8.1 mph - N/A   Clear
4:15 AM 56.8 °F 51.3 °F 82% 30.02 in 10.0 mi NNW 9.2 mph - N/A   Clear
4:35 AM 56.3 °F 50.9 °F 82% 30.02 in 10.0 mi NNW 8.1 mph - N/A   Clear
4:55 AM 55.8 °F 50.9 °F 84% 30.03 in 10.0 mi NNW 6.9 mph - N/A   Clear
5:15 AM 55.4 °F 50.5 °F 84% 30.04 in 10.0 mi NNW 5.8 mph - N/A   Clear
5:35 AM 54.9 °F 50.0 °F 84% 30.04 in 10.0 mi NNW 8.1 mph - N/A   Clear
5:55 AM 54.7 °F 49.3 °F 82% 30.05 in 10.0 mi NW 8.1 mph - N/A   Clear
6:15 AM 54.0 °F 48.7 °F 82% 30.05 in 10.0 mi NW 8.1 mph - N/A   Clear
6:35 AM 53.6 °F 48.7 °F 84% 30.06 in 10.0 mi NW 5.8 mph - N/A   Clear
6:55 AM 52.9 °F 48.9 °F 86% 30.07 in 10.0 mi NW 8.1 mph - N/A   Clear
7:15 AM 52.3 °F 48.6 °F 87% 30.07 in 10.0 mi NW 6.9 mph - N/A   Clear
7:35 AM 52.0 °F 48.2 °F 87% 30.08 in 10.0 mi NW 5.8 mph - N/A   Clear
7:55 AM 52.2 °F 48.7 °F 88% 30.08 in 10.0 mi WNW 8.1 mph - N/A   Clear
8:15 AM 53.2 °F 48.6 °F 84% 30.09 in 10.0 mi NW 8.1 mph - N/A   Clear
8:35 AM 53.8 °F 49.1 °F 84% 30.09 in 10.0 mi WNW 8.1 mph - N/A   Clear
8:55 AM 54.9 °F 49.1 °F 81% 30.10 in 10.0 mi NW 6.9 mph - N/A   Clear
9:15 AM 55.2 °F 48.6 °F 78% 30.10 in 10.0 mi WNW 6.9 mph - N/A   Clear
9:35 AM 56.7 °F 48.4 °F 74% 30.10 in 10.0 mi WNW 9.2 mph - N/A   Clear
9:55 AM 58.1 °F 48.4 °F 70% 30.10 in 10.0 mi NW 9.2 mph - N/A   Clear
10:15 AM 59.9 °F 47.7 °F 64% 30.10 in 10.0 mi NNW 11.5 mph - N/A   Clear
10:35 AM 60.8 °F 47.3 °F 61% 30.10 in 10.0 mi NNW 12.7 mph 18.4 mph N/A   Clear
10:55 AM 61.9 °F 45.0 °F 54% 30.09 in 10.0 mi NNW 18.4 mph 24.2 mph N/A   Clear
11:15 AM 62.4 °F 45.1 °F 53% 30.09 in 10.0 mi NNW 13.8 mph 23.0 mph N/A   Clear
11:35 AM 62.4 °F 45.7 °F 54% 30.09 in 10.0 mi NW 15.0 mph 20.7 mph N/A   Clear
11:55 AM 63.1 °F 45.3 °F 52% 30.08 in 10.0 mi NW 18.4 mph 25.3 mph N/A   Clear
12:15 PM 63.5 °F 46.0 °F 53% 30.08 in 10.0 mi NW 13.8 mph 20.7 mph N/A   Clear
12:35 PM 64.6 °F 45.1 °F 49% 30.07 in 10.0 mi NNW 15.0 mph 18.4 mph N/A   Clear
12:55 PM 64.8 °F 45.9 °F 50% 30.06 in 10.0 mi NNW 16.1 mph 20.7 mph N/A   Clear
1:15 PM 65.7 °F 46.4 °F 50% 30.05 in 10.0 mi NNW 16.1 mph 23.0 mph N/A   Clear
1:55 PM 66.6 °F 45.9 °F 47% 30.04 in 10.0 mi NNW 10.4 mph 20.7 mph N/A   Unknown
2:55 PM 68.4 °F 45.7 °F 44% 30.02 in 10.0 mi NW 9.2 mph - N/A   Unknown
3:15 PM 68.9 °F 45.0 °F 42% 30.01 in 10.0 mi NNW 10.4 mph 17.3 mph N/A   Clear
3:35 PM 69.6 °F 44.8 °F 41% 30.01 in 10.0 mi NNW 11.5 mph 19.6 mph N/A   Clear
3:55 PM 69.8 °F 43.7 °F 39% 30.00 in 10.0 mi NW 15.0 mph 19.6 mph N/A   Clear
4:15 PM 70.2 °F 42.8 °F 37% 29.99 in 10.0 mi NW 13.8 mph 19.6 mph N/A   Clear
4:35 PM 70.7 °F 43.2 °F 37% 29.99 in 10.0 mi NNW 15.0 mph 18.4 mph N/A   Clear
4:55 PM 70.7 °F 42.8 °F 36% 29.99 in 10.0 mi NW 11.5 mph - N/A   Clear
5:15 PM 70.3 °F 42.4 °F 36% 29.98 in 10.0 mi NNW 13.8 mph 18.4 mph N/A   Clear
5:35 PM 70.3 °F 42.1 °F 36% 29.98 in 10.0 mi NNW 10.4 mph 19.6 mph N/A   Clear
5:55 PM 69.8 °F 43.2 °F 38% 29.98 in 10.0 mi NW 8.1 mph - N/A   Clear
6:15 PM 69.4 °F 43.0 °F 38% 29.98 in 10.0 mi North 6.9 mph - N/A   Clear
6:35 PM 68.5 °F 43.7 °F 41% 29.98 in 10.0 mi NNW 6.9 mph - N/A   Clear
6:55 PM 67.3 °F 44.4 °F 44% 29.98 in 10.0 mi NNW 3.5 mph - N/A   Clear
7:15 PM 65.7 °F 46.8 °F 50% 29.98 in 10.0 mi NNW 3.5 mph - N/A   Clear
7:35 PM 63.5 °F 46.0 °F 53% 29.99 in 10.0 mi NNW 3.5 mph - N/A   Clear
7:55 PM 62.2 °F 46.0 °F 55% 29.99 in 10.0 mi NNW 4.6 mph - N/A   Clear
8:15 PM 60.8 °F 46.2 °F 59% 30.00 in 10.0 mi NNW 5.8 mph - N/A   Clear
8:35 PM 60.1 °F 45.9 °F 59% 30.01 in 10.0 mi NNW 4.6 mph - N/A   Clear
8:55 PM 59.5 °F 45.9 °F 61% 30.01 in 10.0 mi NNW 4.6 mph - N/A   Clear
9:15 PM 58.6 °F 46.2 °F 63% 30.01 in 10.0 mi NNW 4.6 mph - N/A   Clear
9:35 PM 59.4 °F 45.7 °F 61% 30.01 in 10.0 mi NNW 5.8 mph - N/A   Clear
9:55 PM 57.7 °F 45.1 °F 63% 30.02 in 10.0 mi North 3.5 mph - N/A   Clear
10:15 PM 57.0 °F 45.1 °F 64% 30.02 in 10.0 mi North 3.5 mph - N/A   Clear
10:35 PM 57.4 °F 45.3 °F 64% 30.02 in 10.0 mi North 4.6 mph - N/A   Clear
10:55 PM 55.8 °F 46.2 °F 70% 30.02 in 10.0 mi North 3.5 mph - N/A   Clear
11:15 PM 57.2 °F 45.3 °F 65% 30.01 in 10.0 mi Calm Calm - N/A   Clear
11:35 PM 56.8 °F 45.9 °F 67% 30.01 in 10.0 mi Calm Calm - N/A   Clear
11:55 PM 58.1 °F 44.8 °F 61% 30.02 in 10.0 mi Calm Calm - N/A   Clear